TDRS 3 1 19548U 88091B 25312.45027976 -.00000302 00000+0 00000+0 0 9990 2 19548 12.7717 342.4579 0040433 340.4110 198.1740 1.00266379123173 HST 1 20580U 90037B 25312.62670398 .00009804 00000+0 34712-3 0 9998 2 20580 28.4659 144.5654 0001507 200.4727 159.5808 15.27381835754774 TDRS 5 1 21639U 91054B 25312.78351493 .00000080 00000+0 00000+0 0 9999 2 21639 14.0991 355.3994 0013815 249.1326 278.0949 1.00270325125502 TDRS 6 1 22314U 93003B 25312.56260281 -.00000299 00000+0 00000+0 0 9999 2 22314 14.1786 358.6855 0010009 204.4467 1.5534 1.00268115120193 TDRS 7 1 23613U 95035B 25312.82878412 -.00000244 00000+0 00000+0 0 9999 2 23613 13.4697 349.6987 0004195 98.9620 347.0409 1.00277193111040 ISS (ZARYA) 1 25544U 98067A 25312.42041502 .00013418 00000+0 24734-3 0 9990 2 25544 51.6332 312.3676 0004093 47.8963 312.2373 15.49452868537539 TERRA 1 25994U 99068A 25312.84223546 .00000853 00000+0 18344-3 0 9996 2 25994 97.9796 5.7610 0002106 171.4716 308.3248 14.60891767377434 TDRS 8 1 26388U 00034A 25312.82417358 -.00000195 00000+0 00000+0 0 9999 2 26388 12.3347 33.1489 0003019 217.9265 178.6015 1.00268032 92979 TIMED 1 26998U 01055B 25312.43971894 .00002365 00000+0 22255-3 0 9997 2 26998 74.0684 319.2590 0002291 252.0440 108.0494 14.94503307297836 AQUA 1 27424U 02022A 25312.86679637 .00002058 00000+0 42310-3 0 9997 2 27424 98.3988 273.2071 0000986 51.3148 330.1970 14.61683756251089 SORCE 1 27651U 03004A 25312.66373797 .00006812 00000+0 52151-3 0 9992 2 27651 39.9917 78.3255 0017796 265.5319 94.3442 15.01876207238716 AURA 1 28376U 04026A 25312.81772512 .00002069 00000+0 43317-3 0 9991 2 28376 98.3131 262.8992 0001093 70.8901 289.2417 14.60821636134030 SWIFT 1 28485U 04047A 25312.47443383 .00046417 00000+0 86395-3 0 9996 2 28485 20.5546 61.2041 0005550 145.8488 214.2311 15.47081806152392 THEMIS A 1 30580U 07004A 25312.29018556 -.00000079 00000+0 37518-2 0 9998 2 30580 4.5049 144.7625 8445833 139.0351 332.8070 0.87835369 39336 THEMIS D 1 30797U 07004D 25312.70308781 -.00000126 00000+0 00000+0 0 9992 2 30797 4.6935 89.7863 8395244 197.4442 92.0720 0.87836399 39142 THEMIS E 1 30798U 07004E 25312.56875374 -.00000109 00000+0 00000+0 0 9995 2 30798 1.9406 107.7375 8397679 180.2774 63.2030 0.87837797 63972 FGRST (GLAST) 1 33053U 08029A 25312.32671559 .00005925 00000+0 23606-3 0 9994 2 33053 25.5835 296.2659 0008229 241.9012 118.0694 15.22250870962124 TDRS 11 1 39070U 13004A 25312.78221493 .00000080 00000+0 00000+0 0 9992 2 39070 3.2117 26.8782 0001282 55.6812 72.9606 1.00266506 44484 TDRS 12 1 39504U 14004A 25312.65127286 -.00000269 00000+0 00000+0 0 9996 2 39504 3.7789 14.9897 0006969 232.5595 354.0872 1.00275618 42067 GPM-CORE 1 39574U 14009C 25312.70414478 .00012415 00000+0 27223-3 0 9991 2 39574 64.9755 326.7020 0011150 264.0324 95.9545 15.44335478663753 MMS 1 1 40482U 15011A 25312.91667823 -.00000623 00000+0 00000+0 0 9991 2 40482 68.5909 352.0838 8534797 162.7076 151.0473 0.28353212 1376 MMS 2 1 40483U 15011B 25312.91667823 -.00000623 00000+0 00000+0 0 9992 2 40483 68.5964 352.0807 8537423 162.7040 151.0608 0.28353140 1374 MMS 3 1 40484U 15011C 25312.91667823 -.00000623 00000+0 00000+0 0 9993 2 40484 68.5991 352.0912 8536292 162.7138 151.0491 0.28353361 1334 MMS 4 1 40485U 15011D 25312.91667823 -.00000623 00000+0 00000+0 0 9994 2 40485 68.5864 352.0785 8536590 162.7234 150.9992 0.28353339 1373 TDRS 13 1 42915U 17047A 25312.81436845 -.00000102 00000+0 00000+0 0 9994 2 42915 3.4266 357.0467 0010976 130.5723 202.2838 1.00271501 30139 NOAA 20 (JPSS-1) 1 43013U 17073A 25312.80466824 .00000177 00000+0 10490-3 0 9991 2 43013 98.7543 249.4818 0001345 135.6465 224.4819 14.19511612413209